[[{"header":{"parameterUnit":"m.s-1","parameterCategory":1,"la1":30.2991,"la2":30.254,"lo1":-89.0895,"lo2":-89.0444,"dy":0.0017,"dx":0.0017,"nx":28,"ny":28,"refTime":"2024-07-01T21:00:00:Z","depth":0,"parameterNumber":2,"parameterNumberName":"U-component_of_WINDS"},"data":[0,0,0,0,0,0,0,0,0,0,0,0,0,0,0,0,0,0,0,0,0,0,0,0,0,0,0,0,0,0,0,0,0,0,0,0,0,0,0,0,0,0,0,0,0,0,0,0,0,0,0,0,0,0,0,0,0,0,-1.2789,-1.2788,0,-1.2711,-1.271,-1.2709,-1.2661,-1.2661,-1.2661,-1.2661,-1.258,-1.2579,-1.2577,0,0,0,0,0,0,0,0,0,0,0,0,0,-1.2896,-1.2894,-1.2789,-1.2788,-1.2787,-1.2711,-1.271,-1.2709,-1.2661,-1.2661,-1.2661,-1.266,-1.2581,-1.2579,-1.2577,0,0,0,0,0,0,0,0,0,0,0,0,0,-1.2837,-1.2894,-1.2789,-1.2754,-1.275,-1.2712,-1.271,-1.2709,-1.2661,-1.2661,-1.2661,-1.266,-1.2582,-1.2579,-1.2576,-1.2566,0,0,-1.2568,-1.2566,0,0,0,0,0,0,0,0,-1.284,-1.2833,-1.276,-1.2756,-1.2752,-1.2696,-1.2719,-1.2661,-1.2662,-1.2695,-1.2661,-1.266,-1.2619,-1.2613,-1.2599,-1.2563,-1.2559,-1.2567,-1.2566,-1.2564,-1.2564,0,0,0,0,0,0,0,-1.2844,-1.2836,-1.2758,-1.2759,-1.2754,-1.2742,-1.2733,-1.2707,-1.266,-1.2692,-1.2688,-1.268,-1.2617,-1.2602,-1.2597,-1.2558,-1.2567,-1.2565,-1.2563,-1.2562,-1.2509,-1.251,0,0,0,0,0,0,-1.2854,-1.284,-1.2761,-1.2756,-1.2796,-1.2741,-1.2731,-1.2714,-1.266,-1.2652,-1.268,-1.2678,-1.2607,-1.26,-1.2594,-1.2579,-1.2564,-1.2562,-1.256,-1.2509,-1.2509,-1.251,0,0,0,0,0,0,-1.2857,-1.2848,-1.2764,-1.2797,-1.2785,-1.2739,-1.2721,-1.2713,-1.2698,-1.2651,-1.2643,-1.2674,-1.2607,-1.2598,-1.2574,-1.2575,-1.256,-1.2558,-1.2509,-1.2509,-1.251,-1.2548,0,0,0,0,0,0,-1.286,-1.2849,-1.2844,-1.2797,-1.2784,-1.2745,-1.2721,-1.2711,-1.2693,-1.269,-1.2643,-1.2635,-1.2606,-1.2578,-1.2571,-1.2571,-1.2556,-1.2508,-1.2509,-1.2509,-1.2546,-1.255,-1.2553,0,0,0,0,0,-1.2864,-1.2858,-1.2844,-1.2835,-1.2777,-1.2745,-1.2737,-1.2703,-1.2694,-1.2689,-1.2659,-1.2637,-1.2577,-1.2576,-1.2567,-1.2567,-1.2508,-1.2509,-1.2509,-1.2545,-1.2549,-1.2553,0,0,0,0,0,0,-1.2907,-1.2851,-1.2835,-1.2814,-1.2785,-1.2737,-1.273,-1.2709,-1.2681,-1.2679,-1.2638,-1.2628,-1.2608,-1.2585,-1.2585,-1.2554,-1.254,-1.2539,-1.257,-1.2573,-1.2576,-1.2582,-1.2553,0,0,0,0,0,-1.2914,-1.2892,-1.2845,-1.2831,-1.2817,-1.2776,-1.2761,-1.2738,-1.2705,-1.2692,-1.266,-1.263,-1.2604,-1.2587,-1.2561,-1.2543,-1.2532,-1.2539,-1.2542,-1.2545,-1.2544,-1.2533,-1.2535,-1.2512,-1.2512,-1.2512,0,0,-1.2928,-1.2895,-1.2884,-1.2839,-1.2813,-1.2791,-1.2766,-1.2744,-1.2728,-1.2689,-1.2663,-1.264,-1.2603,-1.2581,-1.2571,-1.2562,-1.2548,-1.2546,-1.2548,-1.2546,-1.2534,-1.2536,-1.2538,-1.2512,-1.2512,-1.2512,0,0,-1.2943,-1.2916,-1.2901,-1.2876,-1.2837,-1.2811,-1.2807,-1.2763,-1.2745,-1.2719,-1.269,-1.267,-1.2626,-1.2601,-1.2582,-1.2589,-1.2567,-1.2581,-1.2597,-1.2587,-1.2588,-1.259,-1.2591,-1.2592,-1.2581,-1.2581,-1.2581,0,-1.2965,-1.2931,-1.2896,-1.2876,-1.2857,-1.2821,-1.2806,-1.2784,-1.2739,-1.2726,-1.2717,-1.2662,-1.2635,-1.2607,-1.2609,-1.2595,-1.259,-1.2586,-1.2591,-1.2592,-1.2593,-1.2594,-1.2595,-1.2583,-1.2583,-1.2583,-1.2582,0,-1.296,-1.2938,-1.293,-1.2888,-1.2868,-1.2851,-1.2813,-1.2797,-1.2776,-1.275,-1.2724,-1.2691,-1.2657,-1.2649,-1.2628,-1.2618,-1.2614,-1.2599,-1.2583,-1.2597,-1.2598,-1.2598,-1.2586,-1.2585,-1.2584,-1.2584,0,0,-1.2999,-1.2938,-1.2935,-1.2916,-1.2871,-1.2853,-1.2834,-1.2801,-1.2788,-1.2759,-1.2741,-1.2706,-1.2691,-1.2671,-1.2647,-1.2638,-1.2644,-1.2623,-1.2622,-1.2628,-1.2631,-1.2642,-1.2643,-1.263,-1.263,-1.263,-1.2634,0,-1.3006,-1.297,-1.2938,-1.2914,-1.2892,-1.2859,-1.2842,-1.2813,-1.2789,-1.2767,-1.274,-1.2715,-1.2698,-1.2685,-1.2675,-1.2646,-1.2644,-1.2645,-1.2613,-1.2612,-1.2622,-1.2643,-1.2655,-1.266,-1.2634,-1.2634,-1.2634,0,-1.301,-1.2982,-1.2955,-1.2913,-1.2902,-1.2888,-1.2855,-1.2835,-1.2802,-1.2784,-1.2762,-1.2737,-1.2715,-1.2703,-1.2672,-1.2673,-1.2659,-1.2642,-1.2642,-1.2636,-1.2623,-1.2638,-1.2661,-1.2661,-1.2634,-1.2634,-1.2634,0,-1.304,-1.2995,-1.2974,-1.2958,-1.2908,-1.2899,-1.2878,-1.2844,-1.2826,-1.2798,-1.2786,-1.2755,-1.2739,-1.2716,-1.2683,-1.2677,-1.2656,-1.2641,-1.264,-1.2641,-1.2636,-1.2637,-1.2657,-1.2629,-1.2629,-1.2629,-1.2629,0,-1.3051,-1.3036,-1.2986,-1.2973,-1.2955,-1.2919,-1.2902,-1.2878,-1.2848,-1.283,-1.2799,-1.2782,-1.2741,-1.2719,-1.2693,-1.2672,-1.2665,-1.265,-1.2643,-1.2652,-1.2654,-1.2641,-1.2639,-1.2629,-1.2629,-1.2629,-1.2629,0,-1.3081,-1.3047,-1.3021,-1.2976,-1.2965,-1.2953,-1.2915,-1.2901,-1.2875,-1.2852,-1.2844,-1.2804,-1.2776,-1.2742,-1.2704,-1.2686,-1.2667,-1.2657,-1.2679,-1.2674,-1.2676,-1.2676,-1.2687,-1.2686,-1.266,-1.2661,-1.2661,0,-1.309,-1.3077,-1.3031,-1.3016,-1.2996,-1.2973,-1.2954,-1.2919,-1.2901,-1.2862,-1.2853,-1.2823,-1.2797,-1.2755,-1.2722,-1.2693,-1.2682,-1.2688,-1.2677,-1.2686,-1.2681,-1.2682,-1.268,-1.269,-1.2691,-1.2691,-1.2691,0,-1.3109,-1.3093,-1.3068,-1.3037,-1.3016,-1.299,-1.2963,-1.2953,-1.2911,-1.2893,-1.2865,-1.2845,-1.2806,-1.2777,-1.2744,-1.2722,-1.2699,-1.2695,-1.2693,-1.2702,-1.2714,-1.2707,-1.2685,-1.2695,-1.2694,-1.2694,-1.2694,-1.2694,-1.3128,-1.3115,-1.308,-1.3053,-1.3029,-1.3005,-1.2989,-1.2961,-1.2937,-1.2903,-1.2883,-1.2856,-1.2822,-1.2775,-1.2754,-1.2732,-1.2724,-1.2721,-1.272,-1.272,-1.2723,-1.2719,-1.2726,-1.2726,-1.2726,-1.2725,-1.2725,0,-1.3144,-1.3121,-1.3096,-1.3059,-1.3038,-1.302,-1.2989,-1.2972,-1.2948,-1.2919,-1.2895,-1.2862,-1.2834,-1.2799,-1.2769,-1.2758,-1.2747,-1.2751,-1.2751,-1.2746,-1.2732,-1.2736,-1.276,-1.276,-1.276,-1.276,-1.276,-1.276,-1.3151,-1.3128,-1.3108,-1.3073,-1.3049,-1.3022,-1.3006,-1.2983,-1.296,-1.2925,-1.2901,-1.2879,-1.2847,-1.2814,-1.2788,-1.2778,-1.2768,-1.2775,-1.2762,-1.275,-1.2747,-1.2744,-1.2747,-1.2773,-1.2773,-1.2777,-1.2777,-1.2777]},{"header":{"parameterUnit":"m.s-1","parameterCategory":1,"la1":30.2991,"la2":30.254,"lo1":-89.0895,"lo2":-89.0444,"dy":0.0017,"dx":0.0017,"nx":28,"ny":28,"refTime":"2024-07-01T21:00:00:Z","depth":0,"parameterNumber":3,"parameterNumberName":"V-component_of_WINDS"},"data":[0,0,0,0,0,0,0,0,0,0,0,0,0,0,0,0,0,0,0,0,0,0,0,0,0,0,0,0,0,0,0,0,0,0,0,0,0,0,0,0,0,0,0,0,0,0,0,0,0,0,0,0,0,0,0,0,0,0,3.8957,3.8957,0,3.8978,3.8978,3.8979,3.8961,3.896,3.8959,3.8959,3.8978,3.8979,3.898,0,0,0,0,0,0,0,0,0,0,0,0,0,3.89,3.8901,3.8957,3.8957,3.8958,3.8978,3.8978,3.8979,3.8961,3.896,3.8959,3.8958,3.8978,3.8979,3.898,0,0,0,0,0,0,0,0,0,0,0,0,0,3.8923,3.8902,3.8957,3.8951,3.8951,3.8978,3.8978,3.8979,3.8961,3.896,3.8959,3.8958,3.8977,3.8979,3.8981,3.9014,0,0,3.8986,3.8987,0,0,0,0,0,0,0,0,3.8922,3.8926,3.8952,3.8952,3.8952,3.8966,3.8965,3.899,3.8962,3.8957,3.8959,3.8958,3.8975,3.8977,3.8983,3.9015,3.9015,3.8986,3.8987,3.8988,3.8989,0,0,0,0,0,0,0,3.8921,3.8924,3.8965,3.8952,3.8952,3.8947,3.8949,3.897,3.8972,3.8958,3.8956,3.8959,3.8974,3.8981,3.8983,3.9016,3.8986,3.8988,3.8989,3.899,3.9076,3.9078,0,0,0,0,0,0,3.892,3.8923,3.8965,3.8966,3.8934,3.8949,3.8952,3.8962,3.8972,3.8972,3.896,3.8958,3.8979,3.8981,3.8984,3.9024,3.8988,3.899,3.8991,3.9075,3.9077,3.9078,0,0,0,0,0,0,3.8919,3.8924,3.8964,3.8944,3.8949,3.8951,3.8964,3.8963,3.897,3.8974,3.8974,3.8967,3.8978,3.8981,3.9007,3.9024,3.8991,3.8992,3.9074,3.9076,3.9077,3.9104,0,0,0,0,0,0,3.8917,3.8923,3.8936,3.8945,3.895,3.8987,3.8965,3.8965,3.8974,3.8971,3.898,3.898,3.8977,3.9004,3.9009,3.9026,3.8994,3.9072,3.9075,3.9077,3.9101,3.9106,3.911,0,0,0,0,0,3.8915,3.8942,3.8937,3.8942,3.8966,3.8988,3.8991,3.8988,3.8975,3.8988,3.899,3.898,3.9022,3.9007,3.9012,3.903,3.9071,3.9074,3.9077,3.9099,3.9105,3.911,0,0,0,0,0,0,3.8934,3.8943,3.8937,3.8968,3.8978,3.8985,3.9001,3.8994,3.9007,3.9004,3.8999,3.9001,3.9028,3.9031,3.9015,3.9063,3.9044,3.9048,3.906,3.9065,3.907,3.9069,3.8995,0,0,0,0,0,3.8942,3.896,3.8966,3.8992,3.8998,3.8999,3.9008,3.9005,3.9014,3.9018,3.9022,3.9031,3.9046,3.9056,3.907,3.9102,3.9103,3.9116,3.9121,3.9125,3.9128,3.9146,3.9152,3.9087,3.9087,3.9087,0,0,3.8958,3.8965,3.8976,3.8996,3.9003,3.9021,3.9002,3.9021,3.9034,3.902,3.9045,3.9048,3.9058,3.9087,3.91,3.9091,3.9147,3.9128,3.9131,3.9133,3.915,3.9156,3.9161,3.9089,3.9089,3.9088,0,0,3.8997,3.9004,3.9027,3.9035,3.9046,3.9047,3.9053,3.9062,3.9064,3.9089,3.9079,3.9094,3.912,3.9127,3.9135,3.9178,3.9169,3.9182,3.9206,3.9224,3.9229,3.9233,3.9249,3.9255,3.9186,3.9186,3.9186,0,3.9016,3.9043,3.904,3.9061,3.907,3.9059,3.9083,3.909,3.9105,3.9111,3.9101,3.9134,3.914,3.9171,3.9182,3.9187,3.9194,3.9181,3.9229,3.9233,3.9237,3.9252,3.9258,3.9187,3.9187,3.9187,3.9187,0,3.9065,3.9084,3.9102,3.9118,3.9129,3.9151,3.9151,3.9163,3.9159,3.916,3.9186,3.9193,3.9208,3.9215,3.9211,3.9246,3.924,3.9229,3.921,3.9245,3.9259,3.9265,3.919,3.9189,3.9189,3.9188,0,0,3.9116,3.9132,3.9138,3.9146,3.9158,3.9172,3.9194,3.921,3.922,3.9231,3.9249,3.9272,3.9262,3.9271,3.9267,3.9283,3.9317,3.927,3.927,3.9279,3.9357,3.9365,3.9372,3.9311,3.9313,3.9313,3.9356,0,3.9156,3.9195,3.9193,3.9229,3.9247,3.9237,3.9256,3.9265,3.9268,3.9283,3.9285,3.9302,3.9287,3.9292,3.9307,3.931,3.9333,3.9307,3.9328,3.9329,3.9326,3.9379,3.9388,3.9428,3.9362,3.9363,3.9363,0,3.9208,3.9222,3.926,3.9271,3.9278,3.9295,3.931,3.9325,3.9335,3.9336,3.9346,3.934,3.9362,3.9343,3.9373,3.9355,3.9364,3.9366,3.9368,3.937,3.9348,3.9383,3.9441,3.9447,3.9372,3.9371,3.937,0,3.9242,3.927,3.9297,3.9304,3.9316,3.9329,3.9335,3.9344,3.9354,3.9367,3.9374,3.9389,3.9398,3.9409,3.9408,3.9394,3.9439,3.9419,3.944,3.944,3.9449,3.9449,3.951,3.9455,3.9454,3.9454,3.9454,0,3.9287,3.931,3.9313,3.9329,3.9355,3.9353,3.9379,3.9384,3.9392,3.9409,3.9401,3.9417,3.9414,3.943,3.9429,3.9454,3.9458,3.9459,3.9459,3.946,3.946,3.9466,3.9463,3.9456,3.9456,3.9455,3.9455,0,3.9329,3.9332,3.936,3.9371,3.9374,3.9393,3.9402,3.9417,3.9419,3.9441,3.9446,3.9449,3.9467,3.9467,3.9487,3.9487,3.9518,3.9514,3.9515,3.9514,3.9535,3.9533,3.9602,3.9611,3.9549,3.955,3.9551,0,3.9358,3.9376,3.9389,3.9401,3.9408,3.9426,3.9437,3.9435,3.9447,3.9461,3.9475,3.9492,3.9507,3.9536,3.954,3.9556,3.9552,3.9575,3.9555,3.9556,3.9553,3.9553,3.9555,3.958,3.958,3.9581,3.9581,0,3.9409,3.941,3.9426,3.9444,3.9457,3.947,3.9482,3.9492,3.9492,3.9505,3.9525,3.9536,3.9557,3.9575,3.9591,3.9596,3.9589,3.9588,3.9594,3.9595,3.9596,3.9596,3.9526,3.9586,3.9586,3.9585,3.9585,3.9585,3.9446,3.9462,3.9475,3.9493,3.9503,3.9515,3.953,3.9535,3.9551,3.9569,3.9567,3.9589,3.9599,3.962,3.9626,3.9643,3.9635,3.9643,3.9645,3.9647,3.965,3.9593,3.9646,3.9645,3.9645,3.9645,3.9645,0,3.9497,3.9505,3.9522,3.9541,3.9555,3.9548,3.9562,3.9574,3.9594,3.9605,3.9619,3.9642,3.9659,3.9665,3.9682,3.9694,3.9691,3.9698,3.9698,3.9699,3.9656,3.965,3.9701,3.9701,3.9701,3.9701,3.9701,3.9701,3.9526,3.9553,3.9556,3.9588,3.9595,3.9617,3.9625,3.9636,3.9645,3.9671,3.9686,3.9689,3.9698,3.9716,3.9732,3.9733,3.974,3.9748,3.9748,3.9708,3.9702,3.9697,3.9691,3.975,3.975,3.979,3.9791,3.9791]}]]